,,Stat6,,Stat2,,Stat8,,Stat9,,Stat10,,Wind1,,Wind1,
time,status,PA1M_AVG,status,PR1M_SUM,status,RH1M_AVG,status,SR1M_AVG,status,TA1M_AVG,status,W1dAve1m,status,W1sAve1m,
2004-08-23, 00:00:00,VALID,919.444,VALID,0,VALID,97.073,VALID,0.0849042,VALID,19.6503,VALID,97,VALID,0.371951,
2004-08-23, 00:01:00,VALID,919.423,VALID,0,VALID,96.9128,VALID,0.0509425,VALID,19.627,VALID,81,VALID,0.458212,
2004-08-23, 00:02:00,VALID,919.421,VALID,0,VALID,96.7729,VALID,0.0509425,VALID,19.5786,VALID,57,VALID,0.300495,
2004-08-23, 00:03:00,VALID,919.403,VALID,0,VALID,96.7882,VALID,0,VALID,19.5632,VALID,66,VALID,0.607701,
2004-08-23, 00:04:00,VALID,919.393,VALID,0,VALID,96.7106,VALID,0.0169808,VALID,19.5661,VALID,68,VALID,0.487614,
2004-08-23, 00:05:00,VALID,919.365,VALID,0,VALID,96.5135,VALID,0,VALID,19.6153,VALID,63,VALID,0.201791,
2004-08-23, 00:06:00,VALID,919.367,VALID,0,VALID,96.2605,VALID,0,VALID,19.6019,VALID,64,VALID,0.389453,
2004-08-23, 00:07:00,VALID,919.353,VALID,0,VALID,96.2134,VALID,0,VALID,19.6148,VALID,77,VALID,0.448038,
2004-08-23, 00:08:00,VALID,919.36,VALID,0,VALID,96.1308,VALID,0.0509425,VALID,19.6151,VALID,93,VALID,0.604911,
2004-08-23, 00:09:00,VALID,919.354,VALID,0,VALID,96.2274,VALID,0.0169808,VALID,19.6054,VALID,122,VALID,0.7234,
2004-08-23, 00:10:00,VALID,919.352,VALID,0,VALID,96.544,VALID,0.0339617,VALID,19.5989,VALID,130,VALID,0.747093,
2004-08-23, 00:11:00,VALID,919.343,VALID,0,VALID,96.7805,VALID,0.0169808,VALID,19.5858,VALID,136,VALID,0.789063,
2004-08-23, 00:12:00,VALID,919.34,VALID,0,VALID,96.8937,VALID,0,VALID,19.6021,VALID,141,VALID,0.643164,
2004-08-23, 00:13:00,VALID,919.342,VALID,0,VALID,96.7551,VALID,-0.0169808,VALID,19.5989,VALID,141,VALID,0.33113,
2004-08-23, 00:14:00,VALID,919.333,VALID,0,VALID,96.7411,VALID,0.0169808,VALID,19.5922,VALID,141,VALID,0.243118,
2004-08-23, 00:15:00,VALID,919.329,VALID,0,VALID,96.7882,VALID,0.0169808,VALID,19.5892,VALID,141,VALID,0.182106,
2004-08-23, 00:16:00,VALID,919.303,VALID,0,VALID,96.9001,VALID,0.0169808,VALID,19.5922,VALID,141,VALID,0.367188,
2004-08-23, 00:17:00,VALID,919.286,VALID,0,VALID,96.8772,VALID,0,VALID,19.6061,VALID,141,VALID,0.444271,
2004-08-23, 00:18:00,VALID,919.263,VALID,0,VALID,96.8123,VALID,0,VALID,19.5959,VALID,141,VALID,0.389509,
2004-08-23, 00:19:00,VALID,919.236,VALID,0,VALID,96.6585,VALID,0,VALID,19.5798,VALID,141,VALID,0.316592,
2004-08-23, 00:20:00,VALID,919.211,VALID,0,VALID,96.5122,VALID,0,VALID,19.5537,VALID,141,VALID,0.428089,
2004-08-23, 00:21:00,VALID,919.201,VALID,0,VALID,96.5911,VALID,0,VALID,19.5247,VALID,141,VALID,0.408794,
2004-08-23, 00:22:00,VALID,919.18,VALID,0,VALID,96.7386,VALID,0.0169808,VALID,19.5055,VALID,142,VALID,0.557118,
2004-08-23, 00:23:00,VALID,919.168,VALID,0,VALID,96.9484,VALID,0.0339617,VALID,19.4991,VALID,141,VALID,0.696528,
2004-08-23, 00:24:00,VALID,919.171,VALID,0,VALID,96.9357,VALID,0,VALID,19.506,VALID,150,VALID,0.700036,
2004-08-23, 00:25:00,VALID,919.169,VALID,0,VALID,96.8111,VALID,-0.0849042,VALID,19.5167,VALID,151,VALID,0.872049,
2004-08-23, 00:26:00,VALID,919.156,VALID,0,VALID,96.6725,VALID,-0.0849042,VALID,19.5264,VALID,150,VALID,1.01582,
2004-08-23, 00:27:00,VALID,919.146,VALID,0,VALID,96.5987,VALID,-0.101885,VALID,19.5393,VALID,150,VALID,0.943859,
2004-08-23, 00:28:00,VALID,919.133,VALID,0,VALID,96.6178,VALID,-0.101885,VALID,19.5425,VALID,144,VALID,0.977679,
2004-08-23, 00:29:00,VALID,919.124,VALID,0,VALID,96.5898,VALID,-0.118866,VALID,19.5492,VALID,139,VALID,0.881641,
2004-08-23, 00:30:00,VALID,919.084,VALID,0,VALID,96.5962,VALID,-0.101885,VALID,19.5557,VALID,122,VALID,0.773438,
2004-08-23, 00:31:00,VALID,919.064,VALID,0,VALID,96.6013,VALID,-0.101885,VALID,19.5425,VALID,114,VALID,0.623047,
2004-08-23, 00:32:00,VALID,919.045,VALID,0,VALID,96.8149,VALID,-0.101885,VALID,19.5363,VALID,114,VALID,0.722747,
2004-08-23, 00:33:00,VALID,919.039,VALID,0,VALID,96.9649,VALID,-0.101885,VALID,19.5361,VALID,122,VALID,1.03995,
2004-08-23, 00:34:00,VALID,919.027,VALID,0,VALID,96.9471,VALID,-0.101885,VALID,19.5522,VALID,125,VALID,0.870916,
2004-08-23, 00:35:00,VALID,919.006,VALID,0,VALID,96.9675,VALID,-0.0679233,VALID,19.5589,VALID,122,VALID,0.604048,
2004-08-23, 00:36:00,VALID,918.989,VALID,0,VALID,96.82,VALID,-0.101885,VALID,19.5487,VALID,119,VALID,0.592578,
2004-08-23, 00:37:00,VALID,918.979,VALID,0,VALID,96.9357,VALID,-0.0849042,VALID,19.5425,VALID,106,VALID,0.770508,
2004-08-23, 00:38:00,VALID,918.971,VALID,0,VALID,96.9382,VALID,-0.0679233,VALID,19.5453,VALID,107,VALID,0.89755,
2004-08-23, 00:39:00,VALID,918.952,VALID,0,VALID,96.8352,VALID,-0.0509425,VALID,19.5547,VALID,107,VALID,0.905869,
2004-08-23, 00:40:00,VALID,918.955,VALID,0,VALID,96.6445,VALID,0.0339617,VALID,19.5574,VALID,110,VALID,0.800509,
2004-08-23, 00:41:00,VALID,918.938,VALID,0,VALID,96.5466,VALID,0,VALID,19.551,VALID,111,VALID,0.646484,
2004-08-23, 00:42:00,VALID,918.942,VALID,0,VALID,96.4817,VALID,0.0169808,VALID,19.5251,VALID,110,VALID,0.574963,
2004-08-23, 00:43:00,VALID,918.931,VALID,0,VALID,96.5313,VALID,0,VALID,19.5058,VALID,112,VALID,0.773098,
2004-08-23, 00:44:00,VALID,918.919,VALID,0,VALID,96.6241,VALID,0,VALID,19.4834,VALID,117,VALID,0.807106,
2004-08-23, 00:45:00,VALID,918.91,VALID,0,VALID,96.7055,VALID,0,VALID,19.4834,VALID,120,VALID,0.753452,
2004-08-23, 00:46:00,VALID,918.884,VALID,0,VALID,96.6915,VALID,0.0169808,VALID,19.4636,VALID,120,VALID,0.523082,
2004-08-23, 00:47:00,VALID,918.868,VALID,0,VALID,96.6915,VALID,0,VALID,19.4474,VALID,120,VALID,0.286111,
2004-08-23, 00:48:00,VALID,918.847,VALID,0,VALID,96.6165,VALID,0,VALID,19.4544,VALID,122,VALID,0.48056,
2004-08-23, 00:49:00,VALID,918.837,VALID,0,VALID,96.5606,VALID,0,VALID,19.4509,VALID,122,VALID,0.38299,
2004-08-23, 00:50:00,VALID,918.829,VALID,0,VALID,96.6915,VALID,0.0169808,VALID,19.4611,VALID,122,VALID,0.167878,
2004-08-23, 00:51:00,VALID,918.819,VALID,0,VALID,96.6979,VALID,0.0169808,VALID,19.4506,VALID,122,VALID,0.368945,
2004-08-23, 00:52:00,VALID,918.816,VALID,0,VALID,96.6572,VALID,0.0169808,VALID,19.4708,VALID,123,VALID,0.448153,
2004-08-23, 00:53:00,VALID,918.802,VALID,0,VALID,96.6826,VALID,0,VALID,19.4799,VALID,126,VALID,0.572311,
2004-08-23, 00:54:00,VALID,918.792,VALID,0,VALID,96.6598,VALID,-0.0339617,VALID,19.4799,VALID,128,VALID,0.64939,
2004-08-23, 00:55:00,VALID,918.794,VALID,0,VALID,96.5033,VALID,-0.101885,VALID,19.4879,VALID,130,VALID,0.639063,
2004-08-23, 00:56:00,VALID,918.782,VALID,0,VALID,96.5847,VALID,-0.101885,VALID,19.4717,VALID,130,VALID,0.749637,
2004-08-23, 00:57:00,VALID,918.784,VALID,0,VALID,96.8314,VALID,-0.0679233,VALID,19.4747,VALID,130,VALID,0.793056,
2004-08-23, 00:58:00,VALID,918.769,VALID,0,VALID,97.0539,VALID,-0.101885,VALID,19.4844,VALID,135,VALID,0.842607,
2004-08-23, 00:59:00,VALID,918.755,VALID,0,VALID,97.0183,VALID,-0.101885,VALID,19.4983,VALID,137,VALID,0.678385,
2004-08-23, 01:00:00,VALID,918.735,VALID,0,VALID,96.9904,VALID,-0.101885,VALID,19.5043,VALID,139,VALID,0.605469,
2004-08-23, 01:01:00,VALID,918.722,VALID,0,VALID,96.9738,VALID,-0.0849042,VALID,19.5172,VALID,139,VALID,0.538213,
2004-08-23, 01:02:00,VALID,918.714,VALID,0,VALID,96.9713,VALID,-0.0849042,VALID,19.5105,VALID,138,VALID,0.502362,
2004-08-23, 01:03:00,VALID,918.696,VALID,0,VALID,96.9281,VALID,-0.0849042,VALID,19.5169,VALID,138,VALID,0.326219,
2004-08-23, 01:04:00,VALID,918.693,VALID,0,VALID,96.8759,VALID,-0.101885,VALID,19.5271,VALID,138,VALID,0.358817,
2004-08-23, 01:05:00,VALID,918.696,VALID,0,VALID,96.7043,VALID,-0.0849042,VALID,19.5266,VALID,141,VALID,0.430959,
2004-08-23, 01:06:00,VALID,918.69,VALID,0,VALID,96.6636,VALID,-0.0849042,VALID,19.5301,VALID,142,VALID,0.366257,
2004-08-23, 01:07:00,VALID,918.684,VALID,0,VALID,96.647,VALID,-0.0849042,VALID,19.5368,VALID,142,VALID,0.345486,
2004-08-23, 01:08:00,VALID,918.679,VALID,0,VALID,96.647,VALID,-0.0849042,VALID,19.5398,VALID,142,VALID,0.409226,
2004-08-23, 01:09:00,VALID,918.67,VALID,0,VALID,96.6915,VALID,-0.101885,VALID,19.5624,VALID,142,VALID,0.0684956,
2004-08-23, 01:10:00,VALID,918.649,VALID,0,VALID,96.6051,VALID,-0.0849042,VALID,19.5783,VALID,142,VALID,0,
2004-08-23, 01:11:00,VALID,918.643,VALID,0,VALID,96.4169,VALID,-0.0849042,VALID,19.5845,VALID,142,VALID,0,
2004-08-23, 01:12:00,VALID,918.63,VALID,0,VALID,96.0417,VALID,-0.0849042,VALID,19.5654,VALID,142,VALID,0,
2004-08-23, 01:13:00,VALID,918.613,VALID,0,VALID,95.8752,VALID,-0.0849042,VALID,19.5261,VALID,142,VALID,0,
2004-08-23, 01:14:00,VALID,918.588,VALID,0,VALID,95.7175,VALID,-0.0849042,VALID,19.4906,VALID,142,VALID,0,
2004-08-23, 01:15:00,VALID,918.567,VALID,0,VALID,95.7671,VALID,-0.0849042,VALID,19.433,VALID,142,VALID,0.239211,
2004-08-23, 01:16:00,VALID,918.535,VALID,0,VALID,96.1473,VALID,-0.101885,VALID,19.4037,VALID,138,VALID,0.264236,
2004-08-23, 01:17:00,VALID,918.501,VALID,0,VALID,96.4054,VALID,-0.0679233,VALID,19.3938,VALID,138,VALID,0.0862926,
2004-08-23, 01:18:00,VALID,918.486,VALID,0,VALID,96.5377,VALID,-0.0509425,VALID,19.397,VALID,138,VALID,0,
2004-08-23, 01:19:00,VALID,918.462,VALID,0,VALID,96.5733,VALID,-0.101885,VALID,19.4136,VALID,138,VALID,0,
2004-08-23, 01:20:00,VALID,918.444,VALID,0,VALID,96.6318,VALID,-0.0849042,VALID,19.4072,VALID,138,VALID,0,
2004-08-23, 01:21:00,VALID,918.431,VALID,0,VALID,96.6013,VALID,-0.0849042,VALID,19.4044,VALID,138,VALID,0,
2004-08-23, 01:22:00,VALID,918.413,VALID,0,VALID,96.5911,VALID,-0.0849042,VALID,19.3977,VALID,138,VALID,0.103379,
2004-08-23, 01:23:00,VALID,918.407,VALID,0,VALID,96.5885,VALID,-0.101885,VALID,19.3721,VALID,138,VALID,0.492188,
2004-08-23, 01:24:00,VALID,918.396,VALID,0,VALID,96.9001,VALID,-0.0339617,VALID,19.352,VALID,130,VALID,0.416481,
2004-08-23, 01:25:00,VALID,918.376,VALID,0,VALID,97.1188,VALID,-0.0169808,VALID,19.3548,VALID,124,VALID,0.634527,
2004-08-23, 01:26:00,VALID,918.354,VALID,0,VALID,97.2231,VALID,0,VALID,19.3444,VALID,119,VALID,0.561228,
2004-08-23, 01:27:00,VALID,918.339,VALID,0,VALID,97.2358,VALID,0.0169808,VALID,19.3573,VALID,119,VALID,0.539249,
2004-08-23, 01:28:00,VALID,918.317,VALID,0,VALID,97.3006,VALID,0.0339617,VALID,19.3734,VALID,122,VALID,0.589939,
2004-08-23, 01:29:00,VALID,918.315,VALID,0,VALID,97.2777,VALID,0.0339617,VALID,19.3796,VALID,123,VALID,0.652902,
2004-08-23, 01:30:00,VALID,918.296,VALID,0,VALID,97.3757,VALID,0,VALID,19.3898,VALID,123,VALID,0.826029,
2004-08-23, 01:31:00,VALID,918.298,VALID,0,VALID,97.4965,VALID,0.0169808,VALID,19.3702,VALID,123,VALID,0.700238,
2004-08-23, 01:32:00,VALID,918.285,VALID,0,VALID,97.5054,VALID,0.0169808,VALID,19.3573,VALID,123,VALID,0.6516,
2004-08-23, 01:33:00,VALID,918.282,VALID,0,VALID,97.6287,VALID,0.0169808,VALID,19.3384,VALID,131,VALID,0.709263,
2004-08-23, 01:34:00,VALID,918.29,VALID,0,VALID,97.9288,VALID,0,VALID,19.3317,VALID,138,VALID,0.797805,
2004-08-23, 01:35:00,VALID,918.288,VALID,0,VALID,98.1183,VALID,0.0169808,VALID,19.3215,VALID,137,VALID,0.741797,
2004-08-23, 01:36:00,VALID,918.277,VALID,0,VALID,98.192,VALID,0.0169808,VALID,19.3121,VALID,137,VALID,0.598214,
2004-08-23, 01:37:00,VALID,918.276,VALID,0,VALID,98.2683,VALID,0.0169808,VALID,19.3086,VALID,139,VALID,0.670541,
2004-08-23, 01:38:00,VALID,918.263,VALID,0,VALID,98.337,VALID,0.0509425,VALID,19.2959,VALID,140,VALID,0.675037,
2004-08-23, 01:39:00,VALID,918.234,VALID,0,VALID,98.4057,VALID,0.0509425,VALID,19.2962,VALID,142,VALID,0.743278,
2004-08-23, 01:40:00,VALID,918.214,VALID,0,VALID,98.4705,VALID,0,VALID,19.2962,VALID,141,VALID,0.545573,
2004-08-23, 01:41:00,VALID,918.19,VALID,0,VALID,98.4489,VALID,0,VALID,19.2929,VALID,128,VALID,0.520349,
2004-08-23, 01:42:00,VALID,918.166,VALID,0,VALID,98.4057,VALID,0,VALID,19.2837,VALID,125,VALID,0.632449,
2004-08-23, 01:43:00,VALID,918.161,VALID,0,VALID,98.3167,VALID,0,VALID,19.2639,VALID,123,VALID,0.55434,
2004-08-23, 01:44:00,VALID,918.139,VALID,0,VALID,98.1424,VALID,0,VALID,19.2644,VALID,123,VALID,0.811738,
2004-08-23, 01:45:00,VALID,918.14,VALID,0,VALID,98.0471,VALID,0,VALID,19.2445,VALID,105,VALID,0.644259,
2004-08-23, 01:46:00,VALID,918.113,VALID,0,VALID,97.9708,VALID,0,VALID,19.2316,VALID,118,VALID,0.957986,
2004-08-23, 01:47:00,VALID,918.093,VALID,0,VALID,97.8271,VALID,0,VALID,19.2219,VALID,110,VALID,0.822088,
2004-08-23, 01:48:00,VALID,918.087,VALID,0,VALID,97.8373,VALID,0,VALID,19.2224,VALID,113,VALID,0.93109,
2004-08-23, 01:49:00,VALID,918.076,VALID,0,VALID,97.8195,VALID,0,VALID,19.2152,VALID,117,VALID,1.08498,
2004-08-23, 01:50:00,VALID,918.077,VALID,0,VALID,97.7368,VALID,0,VALID,19.2222,VALID,111,VALID,0.684837,
2004-08-23, 01:51:00,VALID,918.04,VALID,0,VALID,97.6732,VALID,0,VALID,19.2093,VALID,98,VALID,0.84032,
2004-08-23, 01:52:00,VALID,918.017,VALID,0,VALID,97.6007,VALID,0.0169808,VALID,19.203,VALID,117,VALID,0.963145,
2004-08-23, 01:53:00,VALID,917.982,VALID,0,VALID,97.5766,VALID,0,VALID,19.1864,VALID,124,VALID,1.06904,
2004-08-23, 01:54:00,VALID,917.952,VALID,0,VALID,97.5473,VALID,0,VALID,19.1765,VALID,125,VALID,1.08136,
2004-08-23, 01:55:00,VALID,917.917,VALID,0,VALID,97.527,VALID,0,VALID,19.1968,VALID,117,VALID,1.03091,
2004-08-23, 01:56:00,VALID,917.897,VALID,0,VALID,97.3935,VALID,0,VALID,19.1963,VALID,110,VALID,0.806868,
2004-08-23, 01:57:00,VALID,917.874,VALID,0,VALID,97.3439,VALID,0,VALID,19.203,VALID,105,VALID,0.997275,
2004-08-23, 01:58:00,VALID,917.857,VALID,0,VALID,97.279,VALID,0,VALID,19.2065,VALID,105,VALID,0.77439,
2004-08-23, 01:59:00,VALID,917.841,VALID,0,VALID,97.2549,VALID,0.0169808,VALID,19.2095,VALID,93,VALID,0.836825,
2004-08-23, 02:00:00,VALID,917.83,VALID,0,VALID,97.1976,VALID,0,VALID,19.2095,VALID,100,VALID,0.845508,
2004-08-23, 02:01:00,VALID,917.823,VALID,0,VALID,97.1557,VALID,-0.0169808,VALID,19.2162,VALID,86,VALID,0.666726,
2004-08-23, 02:02:00,VALID,917.798,VALID,0,VALID,97.1226,VALID,0,VALID,19.2125,VALID,89,VALID,0.727148,
2004-08-23, 02:03:00,VALID,917.777,VALID,0,VALID,97.148,VALID,0,VALID,19.206,VALID,97,VALID,0.756138,
2004-08-23, 02:04:00,VALID,917.762,VALID,0,VALID,97.1353,VALID,0.0169808,VALID,19.2224,VALID,91,VALID,0.627096,
2004-08-23, 02:05:00,VALID,917.722,VALID,0,VALID,97.0768,VALID,0.0169808,VALID,19.2316,VALID,88,VALID,0.617898,
2004-08-23, 02:06:00,VALID,917.702,VALID,0,VALID,96.9649,VALID,-0.0169808,VALID,19.2542,VALID,80,VALID,0.594658,
2004-08-23, 02:07:00,VALID,917.68,VALID,0,VALID,96.8785,VALID,0,VALID,19.2773,VALID,82,VALID,0.688519,
2004-08-23, 02:08:00,VALID,917.649,VALID,0,VALID,96.7945,VALID,0.0169808,VALID,19.2897,VALID,73,VALID,0.892442,
2004-08-23, 02:09:00,VALID,917.641,VALID,0,VALID,96.7399,VALID,0,VALID,19.3257,VALID,74,VALID,0.840588,
2004-08-23, 02:10:00,VALID,917.627,VALID,0,VALID,96.633,VALID,0,VALID,19.3317,VALID,72,VALID,0.86481,
2004-08-23, 02:11:00,VALID,917.636,VALID,0,VALID,96.6508,VALID,0.0169808,VALID,19.3255,VALID,82,VALID,0.886009,
2004-08-23, 02:12:00,VALID,917.63,VALID,0,VALID,96.7221,VALID,-0.0169808,VALID,19.3257,VALID,85,VALID,0.815952,
2004-08-23, 02:13:00,VALID,917.63,VALID,0,VALID,96.8174,VALID,0,VALID,19.3287,VALID,85,VALID,0.712984,
2004-08-23, 02:14:00,VALID,917.627,VALID,0,VALID,96.9471,VALID,0,VALID,19.3419,VALID,95,VALID,0.930197,
2004-08-23, 02:15:00,VALID,917.621,VALID,0,VALID,96.8619,VALID,0,VALID,19.3419,VALID,93,VALID,0.739462,
2004-08-23, 02:16:00,VALID,917.609,VALID,0,VALID,96.9395,VALID,0.0169808,VALID,19.3453,VALID,80,VALID,0.786806,
2004-08-23, 02:17:00,VALID,917.611,VALID,0,VALID,97.0374,VALID,0,VALID,19.3352,VALID,82,VALID,0.790396,
2004-08-23, 02:18:00,VALID,917.61,VALID,0,VALID,96.7678,VALID,0.0169808,VALID,19.3513,VALID,82,VALID,0.6269,
2004-08-23, 02:19:00,VALID,917.6,VALID,0,VALID,96.6928,VALID,0.0339617,VALID,19.3518,VALID,85,VALID,0.867932,
2004-08-23, 02:20:00,VALID,917.59,VALID,0,VALID,96.8721,VALID,0.0169808,VALID,19.3647,VALID,98,VALID,1.03108,
2004-08-23, 02:21:00,VALID,917.583,VALID,0,VALID,96.675,VALID,0,VALID,19.4,VALID,75,VALID,0.72904,
2004-08-23, 02:22:00,VALID,917.578,VALID,0,VALID,96.5555,VALID,0,VALID,19.4062,VALID,76,VALID,0.995916,
2004-08-23, 02:23:00,VALID,917.562,VALID,0,VALID,96.4181,VALID,0.0169808,VALID,19.4196,VALID,69,VALID,0.965021,
2004-08-23, 02:24:00,VALID,917.557,VALID,0,VALID,96.2452,VALID,0,VALID,19.4034,VALID,64,VALID,1.00149,
2004-08-23, 02:25:00,VALID,917.555,VALID,0,VALID,96.3622,VALID,0,VALID,19.3771,VALID,66,VALID,1.03242,
2004-08-23, 02:26:00,VALID,917.542,VALID,0,VALID,96.5326,VALID,-0.0169808,VALID,19.3811,VALID,74,VALID,0.925781,
2004-08-23, 02:27:00,VALID,917.528,VALID,0,VALID,96.7996,VALID,0.0339617,VALID,19.364,VALID,86,VALID,1.0359,
2004-08-23, 02:28:00,VALID,917.515,VALID,0,VALID,96.7666,VALID,0,VALID,19.4,VALID,77,VALID,0.689862,
2004-08-23, 02:29:00,VALID,917.518,VALID,0,VALID,96.6241,VALID,0,VALID,19.4,VALID,77,VALID,0.700284,
2004-08-23, 02:30:00,VALID,917.518,VALID,0,VALID,96.6559,VALID,0.0169808,VALID,19.4067,VALID,77,VALID,0.646984,
2004-08-23, 02:31:00,VALID,917.51,VALID,0,VALID,96.6343,VALID,0,VALID,19.3935,VALID,77,VALID,0.748326,
2004-08-23, 02:32:00,VALID,917.502,VALID,0,VALID,96.7488,VALID,0.0339617,VALID,19.3769,VALID,77,VALID,0.889353,
2004-08-23, 02:33:00,VALID,917.499,VALID,0,VALID,96.8314,VALID,0.0169808,VALID,19.3905,VALID,76,VALID,0.922619,
2004-08-23, 02:34:00,VALID,917.492,VALID,0,VALID,96.8645,VALID,0,VALID,19.3741,VALID,88,VALID,1.0426,
2004-08-23, 02:35:00,VALID,917.494,VALID,0,VALID,96.7526,VALID,0,VALID,19.3938,VALID,102,VALID,0.811592,
2004-08-23, 02:36:00,VALID,917.485,VALID,0,VALID,96.5847,VALID,0.0339617,VALID,19.3866,VALID,101,VALID,0.633003,
2004-08-23, 02:37:00,VALID,917.486,VALID,0,VALID,96.319,VALID,0.0339617,VALID,19.3866,VALID,101,VALID,0.322545,
2004-08-23, 02:38:00,VALID,917.474,VALID,0,VALID,95.598,VALID,0.0169808,VALID,19.319,VALID,101,VALID,0.34707,
2004-08-23, 02:39:00,VALID,917.462,VALID,0,VALID,95.8078,VALID,-0.0339617,VALID,19.2554,VALID,101,VALID,0.533203,
2004-08-23, 02:40:00,VALID,917.442,VALID,0,VALID,96.703,VALID,-0.0509425,VALID,19.2467,VALID,102,VALID,0.699396,
2004-08-23, 02:41:00,VALID,917.436,VALID,0,VALID,97.0743,VALID,-0.0509425,VALID,19.2435,VALID,116,VALID,0.967507,
2004-08-23, 02:42:00,VALID,917.415,VALID,0,VALID,97.1913,VALID,-0.0679233,VALID,19.2398,VALID,121,VALID,0.996003,
2004-08-23, 02:43:00,VALID,917.406,VALID,0,VALID,97.2867,VALID,-0.0679233,VALID,19.2303,VALID,103,VALID,0.947856,
2004-08-23, 02:44:00,VALID,917.406,VALID,0,VALID,97.4278,VALID,-0.0849042,VALID,19.2172,VALID,69,VALID,0.910633,
2004-08-23, 02:45:00,VALID,917.404,VALID,0,VALID,97.452,VALID,-0.0849042,VALID,19.2112,VALID,70,VALID,0.729611,
2004-08-23, 02:46:00,VALID,917.4,VALID,0,VALID,97.396,VALID,-0.0339617,VALID,19.2045,VALID,78,VALID,0.688227,
2004-08-23, 02:47:00,VALID,917.387,VALID,0,VALID,97.5346,VALID,-0.0679233,VALID,19.1846,VALID,85,VALID,0.863653,
2004-08-23, 02:48:00,VALID,917.374,VALID,0,VALID,97.6707,VALID,-0.0509425,VALID,19.1752,VALID,101,VALID,1.00503,
2004-08-23, 02:49:00,VALID,917.356,VALID,0,VALID,97.7991,VALID,-0.0849042,VALID,19.1556,VALID,106,VALID,1.04226,
2004-08-23, 02:50:00,VALID,917.345,VALID,0,VALID,98.0954,VALID,-0.101885,VALID,19.1402,VALID,115,VALID,1.21075,
2004-08-23, 02:51:00,VALID,917.328,VALID,0,VALID,98.2137,VALID,-0.0849042,VALID,19.0977,VALID,115,VALID,1.34394,
2004-08-23, 02:52:00,VALID,917.324,VALID,0,VALID,98.3535,VALID,-0.101885,VALID,19.0689,VALID,118,VALID,1.3343,
2004-08-23, 02:53:00,VALID,917.333,VALID,0,VALID,98.3929,VALID,-0.101885,VALID,19.0364,VALID,104,VALID,1.10338,
2004-08-23, 02:54:00,VALID,917.341,VALID,0,VALID,98.3968,VALID,-0.0339617,VALID,19.0297,VALID,110,VALID,1.03597,
2004-08-23, 02:55:00,VALID,917.34,VALID,0,VALID,98.3624,VALID,0,VALID,19.0091,VALID,112,VALID,0.876402,
2004-08-23, 02:56:00,VALID,917.366,VALID,0,VALID,98.3179,VALID,0,VALID,18.99,VALID,112,VALID,0.814024,
2004-08-23, 02:57:00,VALID,917.379,VALID,0,VALID,98.2861,VALID,0.0169808,VALID,18.9671,VALID,102,VALID,0.877131,
2004-08-23, 02:58:00,VALID,917.379,VALID,0,VALID,98.2658,VALID,0.0339617,VALID,18.9577,VALID,107,VALID,0.890625,
2004-08-23, 02:59:00,VALID,917.37,VALID,0,VALID,98.1933,VALID,0.0339617,VALID,18.9508,VALID,109,VALID,0.796131,
2004-08-23, 03:00:00,VALID,917.367,VALID,0,VALID,98.1806,VALID,0.0169808,VALID,18.9416,VALID,105,VALID,0.877096,
2004-08-23, 03:01:00,VALID,917.356,VALID,0,VALID,98.1501,VALID,0,VALID,18.9515,VALID,97,VALID,0.901296,
2004-08-23, 03:02:00,VALID,917.343,VALID,0,VALID,98.1539,VALID,0.0339617,VALID,18.951,VALID,85,VALID,0.841751,
2004-08-23, 03:03:00,VALID,917.34,VALID,0,VALID,98.1017,VALID,0.0169808,VALID,18.9612,VALID,89,VALID,0.797991,
2004-08-23, 03:04:00,VALID,917.339,VALID,0,VALID,97.953,VALID,0,VALID,18.984,VALID,103,VALID,0.953316,
2004-08-23, 03:05:00,VALID,917.328,VALID,0,VALID,97.6236,VALID,0.0169808,VALID,18.9773,VALID,118,VALID,1.3529,
2004-08-23, 03:06:00,VALID,917.305,VALID,0,VALID,97.2002,VALID,0.0169808,VALID,19.0034,VALID,106,VALID,1.05124,
2004-08-23, 03:07:00,VALID,917.284,VALID,0,VALID,96.8365,VALID,0.0169808,VALID,19.0126,VALID,107,VALID,1.02307,
2004-08-23, 03:08:00,VALID,917.263,VALID,0,VALID,96.7805,VALID,0,VALID,19.0449,VALID,113,VALID,1.14299,
2004-08-23, 03:09:00,VALID,917.257,VALID,0,VALID,96.6623,VALID,-0.0169808,VALID,19.0707,VALID,119,VALID,1.35085,
2004-08-23, 03:10:00,VALID,917.244,VALID,0,VALID,96.4309,VALID,0.0339617,VALID,19.0871,VALID,123,VALID,1.18601,
2004-08-23, 03:11:00,VALID,917.25,VALID,0,VALID,96.2312,VALID,0.0509425,VALID,19.0997,VALID,122,VALID,1.08321,
2004-08-23, 03:12:00,VALID,917.246,VALID,0,VALID,96.0735,VALID,0.0169808,VALID,19.1,VALID,121,VALID,1.21806,
2004-08-23, 03:13:00,VALID,917.256,VALID,0,VALID,95.968,VALID,0,VALID,19.1027,VALID,121,VALID,0.98371,
2004-08-23, 03:14:00,VALID,917.256,VALID,0,VALID,95.8993,VALID,0,VALID,19.1129,VALID,122,VALID,0.980569,
2004-08-23, 03:15:00,VALID,917.26,VALID,0,VALID,95.7378,VALID,0.0169808,VALID,19.1134,VALID,117,VALID,1.07701,
2004-08-23, 03:16:00,VALID,917.267,VALID,0,VALID,95.5191,VALID,0,VALID,19.1193,VALID,108,VALID,1.00109,
2004-08-23, 03:17:00,VALID,917.257,VALID,0,VALID,95.3894,VALID,0.0339617,VALID,19.1417,VALID,102,VALID,0.903011,
2004-08-23, 03:18:00,VALID,917.245,VALID,0,VALID,95.2979,VALID,0.0679233,VALID,19.1447,VALID,92,VALID,0.944041,
2004-08-23, 03:19:00,VALID,917.249,VALID,0,VALID,95.3068,VALID,0.0169808,VALID,19.1285,VALID,66,VALID,0.935501,
2004-08-23, 03:20:00,VALID,917.241,VALID,0,VALID,95.4492,VALID,0.0339617,VALID,19.093,VALID,60,VALID,1.01429,
2004-08-23, 03:21:00,VALID,917.257,VALID,0,VALID,95.556,VALID,0.0339617,VALID,19.058,VALID,67,VALID,1.03702,
2004-08-23, 03:22:00,VALID,917.257,VALID,0,VALID,95.72,VALID,0.0339617,VALID,19.0193,VALID,79,VALID,1.0734,
2004-08-23, 03:23:00,VALID,917.247,VALID,0,VALID,95.9502,VALID,0.0339617,VALID,18.9999,VALID,100,VALID,1.30869,
2004-08-23, 03:24:00,VALID,917.246,VALID,0,VALID,95.8815,VALID,0,VALID,19.0135,VALID,120,VALID,1.32584,
2004-08-23, 03:25:00,VALID,917.266,VALID,0,VALID,95.6641,VALID,-0.0849042,VALID,19.0304,VALID,119,VALID,1.24219,
2004-08-23, 03:26:00,VALID,917.271,VALID,0,VALID,95.5878,VALID,-0.0849042,VALID,19.0398,VALID,121,VALID,1.35032,
2004-08-23, 03:27:00,VALID,917.288,VALID,0,VALID,95.6005,VALID,-0.101885,VALID,19.0498,VALID,117,VALID,1.15352,
2004-08-23, 03:28:00,VALID,917.295,VALID,0,VALID,95.6069,VALID,-0.101885,VALID,19.0403,VALID,118,VALID,1.20406,
2004-08-23, 03:29:00,VALID,917.302,VALID,0,VALID,95.5535,VALID,-0.0509425,VALID,19.0339,VALID,119,VALID,1.0582,
2004-08-23, 03:30:00,VALID,917.308,VALID,0,VALID,95.5267,VALID,-0.0509425,VALID,19.0264,VALID,123,VALID,0.937128,
2004-08-23, 03:31:00,VALID,917.32,VALID,0,VALID,95.5662,VALID,-0.0509425,VALID,19.0297,VALID,124,VALID,0.854759,
2004-08-23, 03:32:00,VALID,917.33,VALID,0,VALID,95.542,VALID,0,VALID,19.0331,VALID,117,VALID,0.654552,
2004-08-23, 03:33:00,VALID,917.342,VALID,0,VALID,95.6425,VALID,-0.0679233,VALID,19.0304,VALID,117,VALID,0.839063,
2004-08-23, 03:34:00,VALID,917.352,VALID,0,VALID,95.7073,VALID,-0.0169808,VALID,19.0532,VALID,120,VALID,0.827431,